Location: Marcé
(47.5801°N, 0.3280°W)
Time: 16:26:20
(UTC+01:00)

SR - Pass Details

Date: 06 December 2021
Orbit: 582 x 872 km, 66.7° (Epoch: 22 January)

Event Time Altitude Azimuth Distance (km) Brightness Sun altitude
Rises 02:22:15 0° 274° (W) 2,889 - -59.1°
Reaches altitude 10° 02:25:51 10° 304° (NW) 1,944 - -58.7°
Maximum altitude 02:27:43 12° 330° (NNW) 1,773 - -58.5°
Drops below altitude 10° 02:29:34 10° 356° (N) 1,920 - -58.3°
Sets 02:33:05 0° 26° (NNE) 2,815 - -57.8°
